Main page
METAR-TAF:

METAR-TAF

Airports :

Pontianak, Indonesia

Supadio International Airport

latitude: 00-09S, longitude: 109-24E, elevation: 3 m

Current weather observation

The report was made 30 minutes ago, at 07:30 UTC
Wind 5 kt from the East
Temperature 32°C
Humidity 63%
Pressure 1007 hPa
Visibility 10 km or more
Broken clouds at a height of 1200 ft

METAR: WIOO 240730Z 10005KT 9999 BKN012 32/24 Q1007 NOSIG

Time: 15:00 (08:00 UTC)


TAF: missing

Weather observations and forecasts of more than 4000 airports (METAR and TAF reports).

The available stations are represented by yellow and red dots on the map.

Hover mouse over dot to see the name of the station.

Then click to see weather observations and forecasts.

To change the map : click on the green buttons with a black cross to zoom in, on the green button with a dash to zoom out, or on the green arrows for adjacent maps.


METAR-TAF: